Year,Month,Day,Hour,Minute,Value (Times are PST for temperature in C)
2010,08,16,00,00,20.10
2010,08,16,00,01,20.10
2010,08,16,00,02,20.10
2010,08,16,00,03,20.10
2010,08,16,00,04,20.10
2010,08,16,00,05,20.00
2010,08,16,00,06,19.90
2010,08,16,00,07,19.90
2010,08,16,00,08,19.90
2010,08,16,00,09,19.90
2010,08,16,00,10,19.90
2010,08,16,00,11,19.90
2010,08,16,00,12,19.90
2010,08,16,00,16,19.80
2010,08,16,00,17,19.80
2010,08,16,00,18,19.80
2010,08,16,00,19,19.80
2010,08,16,00,20,19.80
2010,08,16,00,21,19.80
2010,08,16,00,22,19.80
2010,08,16,00,23,19.80
2010,08,16,00,24,19.80
2010,08,16,00,25,19.80
2010,08,16,00,26,19.80
2010,08,16,00,27,19.80
2010,08,16,00,28,19.80
2010,08,16,00,29,19.70
2010,08,16,00,30,19.70
2010,08,16,00,31,19.70
2010,08,16,00,32,19.70
2010,08,16,00,33,19.70
2010,08,16,00,34,19.70
2010,08,16,00,35,19.70
2010,08,16,00,36,19.70
2010,08,16,00,37,19.70
2010,08,16,00,38,19.70
2010,08,16,00,39,19.70
2010,08,16,00,40,19.70
2010,08,16,00,41,19.60
2010,08,16,00,42,19.60
2010,08,16,00,43,19.60
2010,08,16,00,44,19.60
2010,08,16,00,45,19.60
2010,08,16,00,46,19.60
2010,08,16,00,47,19.60
2010,08,16,00,48,19.60
2010,08,16,00,49,19.60
2010,08,16,00,50,19.60
2010,08,16,00,51,19.60
2010,08,16,00,52,19.60
2010,08,16,00,53,19.60
2010,08,16,00,54,19.60
2010,08,16,00,55,19.60
2010,08,16,00,56,19.60
2010,08,16,00,57,19.60
2010,08,16,00,58,19.60
2010,08,16,00,59,19.60
2010,08,16,01,00,19.60
2010,08,16,01,01,19.60
2010,08,16,01,02,19.60
2010,08,16,01,03,19.60
2010,08,16,01,04,19.60
2010,08,16,01,05,19.50
2010,08,16,01,06,19.50
2010,08,16,01,07,19.50
2010,08,16,01,08,19.50
2010,08,16,01,09,19.50
2010,08,16,01,10,19.50
2010,08,16,01,11,19.50
2010,08,16,01,12,19.50
2010,08,16,01,13,19.50
2010,08,16,01,14,19.50
2010,08,16,01,15,19.50
2010,08,16,01,16,19.50
2010,08,16,01,17,19.40
2010,08,16,01,18,19.40
2010,08,16,01,19,19.40
2010,08,16,01,20,19.40
2010,08,16,01,21,19.40
2010,08,16,01,22,19.40
2010,08,16,01,23,19.40
2010,08,16,01,24,19.40
2010,08,16,01,25,19.30
2010,08,16,01,26,19.30
2010,08,16,01,27,19.30
2010,08,16,01,28,19.30
2010,08,16,01,29,19.30
2010,08,16,01,30,19.30
2010,08,16,01,31,19.20
2010,08,16,01,32,19.20
2010,08,16,01,33,19.20
2010,08,16,01,34,19.20
2010,08,16,01,35,19.20
2010,08,16,01,36,19.10
2010,08,16,01,37,19.10
2010,08,16,01,38,19.10
2010,08,16,01,39,19.10
2010,08,16,01,40,19.10
2010,08,16,01,41,19.10
2010,08,16,01,42,19.10
2010,08,16,01,43,19.10
2010,08,16,01,44,19.10
2010,08,16,01,45,19.10
2010,08,16,01,46,19.10
2010,08,16,01,47,19.10
2010,08,16,01,48,19.00
2010,08,16,01,49,18.90
2010,08,16,01,50,18.90
2010,08,16,01,51,18.90
2010,08,16,01,52,18.90
2010,08,16,01,53,18.90
2010,08,16,01,54,18.90
2010,08,16,01,55,18.90
2010,08,16,01,56,18.90
2010,08,16,01,57,18.90
2010,08,16,01,58,18.90
2010,08,16,01,59,18.90
2010,08,16,02,00,18.90
2010,08,16,02,01,18.90
2010,08,16,02,02,18.80
2010,08,16,02,03,18.80
2010,08,16,02,04,18.80
2010,08,16,02,05,18.80
2010,08,16,02,06,18.80
2010,08,16,02,07,18.70
2010,08,16,02,08,18.70
2010,08,16,02,09,18.70
2010,08,16,02,10,18.70
2010,08,16,02,11,18.70
2010,08,16,02,12,18.60
2010,08,16,02,13,18.60
2010,08,16,02,14,18.60
2010,08,16,02,15,18.60
2010,08,16,02,16,18.60
2010,08,16,02,17,18.60
2010,08,16,02,18,18.50
2010,08,16,02,19,18.50
2010,08,16,02,20,18.50
2010,08,16,02,21,18.50
2010,08,16,02,22,18.50
2010,08,16,02,23,18.50
2010,08,16,02,24,18.50
2010,08,16,02,25,18.40
2010,08,16,02,26,18.40
2010,08,16,02,27,18.40
2010,08,16,02,28,18.40
2010,08,16,02,29,18.40
2010,08,16,02,30,18.30
2010,08,16,02,31,18.30
2010,08,16,02,32,18.30
2010,08,16,02,33,18.30
2010,08,16,02,34,18.30
2010,08,16,02,35,18.30
2010,08,16,02,36,18.20
2010,08,16,02,37,18.20
2010,08,16,02,38,18.20
2010,08,16,02,39,18.20
2010,08,16,02,40,18.20
2010,08,16,02,41,18.20
2010,08,16,02,42,18.20
2010,08,16,02,43,18.20
2010,08,16,02,44,18.20
2010,08,16,02,45,18.20
2010,08,16,02,46,18.20
2010,08,16,02,47,18.20
2010,08,16,02,48,18.20
2010,08,16,02,49,18.20
2010,08,16,02,50,18.20
2010,08,16,02,51,18.20
2010,08,16,02,52,18.20
2010,08,16,02,53,18.10
2010,08,16,02,54,18.10
2010,08,16,02,55,18.10
2010,08,16,02,56,18.10
2010,08,16,02,57,18.10
2010,08,16,02,58,18.10
2010,08,16,02,59,18.10
2010,08,16,03,00,18.10
2010,08,16,03,01,18.10
2010,08,16,03,02,18.10
2010,08,16,03,03,18.10
2010,08,16,03,04,18.10
2010,08,16,03,05,18.10
2010,08,16,03,06,18.10
2010,08,16,03,07,18.10
2010,08,16,03,08,18.10
2010,08,16,03,09,18.10
2010,08,16,03,10,18.00
2010,08,16,03,11,17.90
2010,08,16,03,12,17.90
2010,08,16,03,13,17.90
2010,08,16,03,14,17.90
2010,08,16,03,15,17.90
2010,08,16,03,16,17.90
2010,08,16,03,17,17.90
2010,08,16,03,18,17.90
2010,08,16,03,19,17.90
2010,08,16,03,20,17.90
2010,08,16,03,21,17.90
2010,08,16,03,22,17.90
2010,08,16,03,23,17.90
2010,08,16,03,24,17.90
2010,08,16,03,25,17.90
2010,08,16,03,26,17.90
2010,08,16,03,27,17.90
2010,08,16,03,28,17.90
2010,08,16,03,29,17.90
2010,08,16,03,30,17.90
2010,08,16,03,31,17.90
2010,08,16,03,32,17.90
2010,08,16,03,33,17.90
2010,08,16,03,34,17.90
2010,08,16,03,35,17.90
2010,08,16,03,36,17.90
2010,08,16,03,37,17.90
2010,08,16,03,38,17.90
2010,08,16,03,39,17.90
2010,08,16,03,40,17.90
2010,08,16,03,41,17.90
2010,08,16,03,42,17.90
2010,08,16,03,43,17.90
2010,08,16,03,44,17.90
2010,08,16,03,45,17.90
2010,08,16,03,46,17.90
2010,08,16,03,47,17.90
2010,08,16,03,48,17.90
2010,08,16,03,49,17.90
2010,08,16,03,50,17.90
2010,08,16,03,51,17.90
2010,08,16,03,52,17.90
2010,08,16,03,53,17.90
2010,08,16,03,54,17.90
2010,08,16,03,55,17.90
2010,08,16,03,56,17.90
2010,08,16,03,57,17.90
2010,08,16,03,58,17.90
2010,08,16,03,59,17.90
2010,08,16,04,00,17.80
2010,08,16,04,01,17.80
2010,08,16,04,02,17.80
2010,08,16,04,03,17.80
2010,08,16,04,04,17.80
2010,08,16,04,05,17.80
2010,08,16,04,06,17.80
2010,08,16,04,07,17.80
2010,08,16,04,08,17.80
2010,08,16,04,09,17.70
2010,08,16,04,10,17.70
2010,08,16,04,11,17.70
2010,08,16,04,12,17.70
2010,08,16,04,13,17.70
2010,08,16,04,14,17.70
2010,08,16,04,15,17.70
2010,08,16,04,16,17.70
2010,08,16,04,17,17.70
2010,08,16,04,18,17.70
2010,08,16,04,19,17.70
2010,08,16,04,20,17.70
2010,08,16,04,21,17.60
2010,08,16,04,22,17.60
2010,08,16,04,23,17.60
2010,08,16,04,24,17.60
2010,08,16,04,25,17.60
2010,08,16,04,26,17.60
2010,08,16,04,27,17.60
2010,08,16,04,28,17.60
2010,08,16,04,29,17.60
2010,08,16,04,30,17.60
2010,08,16,04,31,17.60
2010,08,16,04,32,17.60
2010,08,16,04,33,17.60
2010,08,16,04,34,17.60
2010,08,16,04,35,17.60
2010,08,16,04,36,17.60
2010,08,16,04,37,17.60
2010,08,16,04,38,17.60
2010,08,16,04,39,17.60
2010,08,16,04,40,17.60
2010,08,16,04,41,17.60
2010,08,16,04,42,17.60
2010,08,16,04,43,17.60
2010,08,16,04,44,17.60
2010,08,16,04,45,17.50
2010,08,16,04,46,17.50
2010,08,16,04,47,17.50
2010,08,16,04,48,17.50
2010,08,16,04,49,17.50
2010,08,16,04,50,17.50
2010,08,16,04,51,17.50
2010,08,16,04,52,17.50
2010,08,16,04,53,17.40
2010,08,16,04,54,17.40
2010,08,16,04,55,17.40
2010,08,16,04,56,17.40
2010,08,16,04,57,17.40
2010,08,16,04,58,17.40
2010,08,16,04,59,17.40
2010,08,16,05,00,17.40
2010,08,16,05,01,17.30
2010,08,16,05,02,17.30
2010,08,16,05,03,17.30
2010,08,16,05,04,17.30
2010,08,16,05,05,17.30
2010,08,16,05,06,17.30
2010,08,16,05,07,17.30
2010,08,16,05,08,17.30
2010,08,16,05,09,17.30
2010,08,16,05,10,17.30
2010,08,16,05,11,17.30
2010,08,16,05,12,17.30
2010,08,16,05,13,17.30
2010,08,16,05,14,17.30
2010,08,16,05,15,17.20
2010,08,16,05,16,17.20
2010,08,16,05,17,17.20
2010,08,16,05,18,17.20
2010,08,16,05,19,17.20
2010,08,16,05,20,17.10
2010,08,16,05,21,17.10
2010,08,16,05,22,17.10
2010,08,16,05,23,17.10
2010,08,16,05,24,17.10
2010,08,16,05,25,17.00
2010,08,16,05,26,17.00
2010,08,16,05,27,17.00
2010,08,16,05,28,17.00
2010,08,16,05,29,17.00
2010,08,16,05,30,16.90
2010,08,16,05,31,16.90
2010,08,16,05,32,16.90
2010,08,16,05,33,16.90
2010,08,16,05,34,16.80
2010,08,16,05,35,16.80
2010,08,16,05,36,16.80
2010,08,16,05,37,16.70
2010,08,16,05,38,16.70
2010,08,16,05,39,16.70
2010,08,16,05,40,16.70
2010,08,16,05,41,16.70
2010,08,16,05,42,16.70
2010,08,16,05,43,16.70
2010,08,16,05,44,16.60
2010,08,16,05,45,16.60
2010,08,16,05,46,16.60
2010,08,16,05,47,16.50
2010,08,16,05,48,16.40
2010,08,16,05,49,16.40
2010,08,16,05,50,16.40
2010,08,16,05,51,16.40
2010,08,16,05,52,16.40
2010,08,16,05,53,16.40
2010,08,16,05,54,16.40
2010,08,16,05,55,16.30
2010,08,16,05,56,16.30
2010,08,16,05,57,16.30
2010,08,16,05,58,16.20
2010,08,16,05,59,16.20
2010,08,16,06,00,16.20
2010,08,16,06,01,16.20
2010,08,16,06,02,16.20
2010,08,16,06,03,16.10
2010,08,16,06,04,16.10
2010,08,16,06,05,16.10
2010,08,16,06,06,16.10
2010,08,16,06,07,16.10
2010,08,16,06,08,16.10
2010,08,16,06,09,16.10
2010,08,16,06,10,16.00
2010,08,16,06,11,15.90
2010,08,16,06,12,15.90
2010,08,16,06,13,15.90
2010,08,16,06,14,15.90
2010,08,16,06,15,15.90
2010,08,16,06,16,15.90
2010,08,16,06,17,15.80
2010,08,16,06,18,15.80
2010,08,16,06,19,15.80
2010,08,16,06,20,15.80
2010,08,16,06,21,15.80
2010,08,16,06,22,15.80
2010,08,16,06,23,15.80
2010,08,16,06,24,15.80
2010,08,16,06,25,15.80
2010,08,16,06,26,15.80
2010,08,16,06,27,15.80
2010,08,16,06,28,15.80
2010,08,16,06,29,15.80
2010,08,16,06,30,15.80
2010,08,16,06,31,15.80
2010,08,16,06,32,15.80
2010,08,16,06,33,15.70
2010,08,16,06,34,15.70
2010,08,16,06,35,15.70
2010,08,16,06,36,15.70
2010,08,16,06,37,15.70
2010,08,16,06,38,15.60
2010,08,16,06,39,15.60
2010,08,16,06,40,15.60
2010,08,16,06,41,15.60
2010,08,16,06,42,15.60
2010,08,16,06,43,15.60
2010,08,16,06,44,15.50
2010,08,16,06,45,15.50
2010,08,16,06,46,15.50
2010,08,16,06,47,15.50
2010,08,16,06,48,15.50
2010,08,16,06,49,15.40
2010,08,16,06,50,15.40
2010,08,16,06,51,15.40
2010,08,16,06,52,15.40
2010,08,16,06,53,15.40
2010,08,16,06,54,15.30
2010,08,16,06,55,15.30
2010,08,16,06,56,15.30
2010,08,16,06,57,15.30
2010,08,16,06,58,15.30
2010,08,16,06,59,15.30
2010,08,16,07,00,15.30
2010,08,16,07,01,15.30
2010,08,16,07,02,15.30
2010,08,16,07,03,15.30
2010,08,16,07,04,15.30
2010,08,16,07,05,15.30
2010,08,16,07,06,15.30
2010,08,16,07,07,15.30
2010,08,16,07,08,15.30
2010,08,16,07,09,15.20
2010,08,16,07,10,15.20
2010,08,16,07,11,15.20
2010,08,16,07,12,15.20
2010,08,16,07,13,15.20
2010,08,16,07,14,15.20
2010,08,16,07,15,15.20
2010,08,16,07,16,15.20
2010,08,16,07,17,15.10
2010,08,16,07,18,15.10
2010,08,16,07,19,15.10
2010,08,16,07,20,15.10
2010,08,16,07,21,15.10
2010,08,16,07,22,15.10
2010,08,16,07,23,15.10
2010,08,16,07,24,15.10
2010,08,16,07,25,15.10
2010,08,16,07,26,15.10
2010,08,16,07,27,15.10
2010,08,16,07,28,15.10
2010,08,16,07,29,15.10
2010,08,16,07,30,15.10
2010,08,16,07,31,15.10
2010,08,16,07,32,15.10
2010,08,16,07,33,15.10
2010,08,16,07,34,15.10
2010,08,16,07,35,15.10
2010,08,16,07,36,15.10
2010,08,16,07,37,15.10
2010,08,16,07,38,15.10
2010,08,16,07,39,15.10
2010,08,16,07,40,15.10
2010,08,16,07,41,15.10
2010,08,16,07,42,15.10
2010,08,16,07,43,15.10
2010,08,16,07,44,15.10
2010,08,16,07,45,15.20
2010,08,16,07,46,15.20
2010,08,16,07,47,15.20
2010,08,16,07,48,15.20
2010,08,16,07,49,15.20
2010,08,16,07,50,15.20
2010,08,16,07,51,15.20
2010,08,16,07,52,15.20
2010,08,16,07,53,15.20
2010,08,16,07,54,15.20
2010,08,16,07,55,15.20
2010,08,16,07,56,15.30
2010,08,16,07,57,15.30
2010,08,16,07,58,15.30
2010,08,16,07,59,15.30
2010,08,16,08,00,15.30
2010,08,16,08,01,15.30
2010,08,16,08,02,15.30
2010,08,16,08,03,15.30
2010,08,16,08,04,15.30
2010,08,16,08,05,15.40
2010,08,16,08,06,15.40
2010,08,16,08,07,15.40
2010,08,16,08,08,15.50
2010,08,16,08,09,15.50
2010,08,16,08,10,15.60
2010,08,16,08,11,15.60
2010,08,16,08,12,15.70
2010,08,16,08,13,15.80
2010,08,16,08,14,15.80
2010,08,16,08,15,15.90
2010,08,16,08,16,16.10
2010,08,16,08,17,16.10
2010,08,16,08,18,16.20
2010,08,16,08,19,16.30
2010,08,16,08,20,16.40
2010,08,16,08,21,16.50
2010,08,16,08,22,16.60
2010,08,16,08,23,16.70
2010,08,16,08,24,16.80
2010,08,16,08,25,16.90
2010,08,16,08,26,17.00
2010,08,16,08,27,17.10
2010,08,16,08,28,17.20
2010,08,16,08,29,17.30
2010,08,16,08,30,17.40
2010,08,16,08,31,17.50
2010,08,16,08,32,17.70
2010,08,16,08,33,17.80
2010,08,16,08,34,17.90
2010,08,16,08,35,18.00
2010,08,16,08,36,18.20
2010,08,16,08,37,18.30
2010,08,16,08,38,18.40
2010,08,16,08,39,18.50
2010,08,16,08,40,18.60
2010,08,16,08,41,18.70
2010,08,16,08,42,18.90
2010,08,16,08,43,19.00
2010,08,16,08,44,19.10
2010,08,16,08,45,19.20
2010,08,16,08,46,19.30
2010,08,16,08,47,19.50
2010,08,16,08,48,19.60
2010,08,16,08,49,19.70
2010,08,16,08,50,19.80
2010,08,16,08,51,20.00
2010,08,16,08,52,20.10
2010,08,16,08,53,20.20
2010,08,16,08,54,20.20
2010,08,16,08,55,20.30
2010,08,16,08,56,20.40
2010,08,16,08,57,20.50
2010,08,16,08,58,20.50
2010,08,16,08,59,20.50
2010,08,16,09,00,20.50
2010,08,16,09,01,20.50
2010,08,16,09,02,20.40
2010,08,16,09,03,20.40
2010,08,16,09,04,20.30
2010,08,16,09,05,20.20
2010,08,16,09,06,20.20
2010,08,16,09,07,20.20
2010,08,16,09,08,20.20
2010,08,16,09,09,20.20
2010,08,16,09,10,20.20
2010,08,16,09,11,20.20
2010,08,16,09,12,20.20
2010,08,16,09,13,20.30
2010,08,16,09,14,20.30
2010,08,16,09,15,20.30
2010,08,16,09,16,20.30
2010,08,16,09,17,20.40
2010,08,16,09,18,20.40
2010,08,16,09,19,20.40
2010,08,16,09,20,20.40
2010,08,16,09,21,20.50
2010,08,16,09,22,20.50
2010,08,16,09,23,20.50
2010,08,16,09,24,20.50
2010,08,16,09,25,20.50
2010,08,16,09,26,20.50
2010,08,16,09,27,20.50
2010,08,16,09,28,20.50
2010,08,16,09,29,20.50
2010,08,16,09,30,20.60
2010,08,16,09,31,20.60
2010,08,16,09,32,20.70
2010,08,16,09,33,20.70
2010,08,16,09,34,20.80
2010,08,16,09,35,20.80
2010,08,16,09,36,20.80
2010,08,16,09,37,20.80
2010,08,16,09,38,20.80
2010,08,16,09,39,20.80
2010,08,16,09,40,20.70
2010,08,16,09,41,20.70
2010,08,16,09,42,20.60
2010,08,16,09,43,20.60
2010,08,16,09,44,20.50
2010,08,16,09,45,20.50
2010,08,16,09,46,20.50
2010,08,16,09,47,20.50
2010,08,16,09,48,20.60
2010,08,16,09,49,20.70
2010,08,16,09,50,20.70
2010,08,16,09,51,20.80
2010,08,16,09,52,20.80
2010,08,16,09,53,21.00
2010,08,16,09,54,21.00
2010,08,16,09,55,21.20
2010,08,16,09,56,21.30
2010,08,16,09,57,21.30
2010,08,16,09,58,21.40
2010,08,16,09,59,21.50
2010,08,16,10,00,21.70
2010,08,16,10,01,21.80
2010,08,16,10,02,21.90
2010,08,16,10,03,21.90
2010,08,16,10,04,22.00
2010,08,16,10,05,22.10
2010,08,16,10,06,22.10
2010,08,16,10,07,22.20
2010,08,16,10,08,22.30
2010,08,16,10,09,22.50
2010,08,16,10,10,22.70
2010,08,16,10,11,22.70
2010,08,16,10,12,22.70
2010,08,16,10,13,22.70
2010,08,16,10,14,22.70
2010,08,16,10,15,22.70
2010,08,16,10,16,22.70
2010,08,16,10,17,22.80
2010,08,16,10,18,22.80
2010,08,16,10,19,22.90
2010,08,16,10,20,22.90
2010,08,16,10,21,22.90
2010,08,16,10,22,23.00
2010,08,16,10,23,23.10
2010,08,16,10,24,23.10
2010,08,16,10,25,23.20
2010,08,16,10,26,23.20
2010,08,16,10,27,23.30
2010,08,16,10,28,23.30
2010,08,16,10,29,23.30
2010,08,16,10,30,23.30
2010,08,16,10,31,23.30
2010,08,16,10,32,23.30
2010,08,16,10,33,23.30
2010,08,16,10,34,23.30
2010,08,16,10,35,23.30
2010,08,16,10,36,23.30
2010,08,16,10,37,23.30
2010,08,16,10,38,23.30
2010,08,16,10,39,23.30
2010,08,16,10,40,23.30
2010,08,16,10,41,23.20
2010,08,16,10,42,23.20
2010,08,16,10,43,23.20
2010,08,16,10,44,23.20
2010,08,16,10,45,23.20
2010,08,16,10,46,23.20
2010,08,16,10,47,23.20
2010,08,16,10,48,23.20
2010,08,16,10,49,23.30
2010,08,16,10,50,23.20
2010,08,16,10,51,23.20
2010,08,16,10,52,23.10
2010,08,16,10,53,23.00
2010,08,16,10,54,22.90
2010,08,16,10,55,22.90
2010,08,16,10,56,22.70
2010,08,16,10,57,22.70
2010,08,16,10,58,22.50
2010,08,16,10,59,22.40
2010,08,16,11,00,22.20
2010,08,16,11,01,22.10
2010,08,16,11,02,22.00
2010,08,16,11,03,21.90
2010,08,16,11,04,21.90
2010,08,16,11,05,22.00
2010,08,16,11,06,22.00
2010,08,16,11,07,22.20
2010,08,16,11,08,22.20
2010,08,16,11,09,22.30
2010,08,16,11,10,22.40
2010,08,16,11,11,22.40
2010,08,16,11,12,22.50
2010,08,16,11,13,22.60
2010,08,16,11,14,22.60
2010,08,16,11,15,22.60
2010,08,16,11,16,22.80
2010,08,16,11,17,22.90
2010,08,16,11,18,22.90
2010,08,16,11,19,23.00
2010,08,16,11,20,23.10
2010,08,16,11,21,23.20
2010,08,16,11,22,23.20
2010,08,16,11,23,23.30
2010,08,16,11,24,23.30
2010,08,16,11,25,23.30
2010,08,16,11,26,23.40
2010,08,16,11,27,23.40
2010,08,16,11,28,23.40
2010,08,16,11,29,23.50
2010,08,16,11,30,23.60
2010,08,16,11,31,23.60
2010,08,16,11,32,23.60
2010,08,16,11,33,23.60
2010,08,16,11,34,23.60
2010,08,16,11,35,23.60
2010,08,16,11,36,23.70
2010,08,16,11,37,23.60
2010,08,16,11,38,23.60
2010,08,16,11,39,23.70
2010,08,16,11,40,23.70
2010,08,16,11,41,23.70
2010,08,16,11,42,23.80
2010,08,16,11,43,23.80
2010,08,16,11,44,23.80
2010,08,16,11,45,23.80
2010,08,16,11,46,23.80
2010,08,16,11,47,23.80
2010,08,16,11,48,23.90
2010,08,16,11,49,23.90
2010,08,16,11,50,23.90
2010,08,16,11,51,23.80
2010,08,16,11,52,23.70
2010,08,16,11,53,23.70
2010,08,16,11,54,23.70
2010,08,16,11,55,23.60
2010,08,16,11,56,23.60
2010,08,16,11,57,23.50
2010,08,16,11,58,23.40
2010,08,16,11,59,23.40
2010,08,16,12,00,23.40
2010,08,16,12,01,23.40
2010,08,16,12,02,23.40
2010,08,16,12,03,23.40
2010,08,16,12,04,23.50
2010,08,16,12,05,23.60
2010,08,16,12,06,23.70
2010,08,16,12,07,23.70
2010,08,16,12,08,23.70
2010,08,16,12,09,23.80
2010,08,16,12,10,23.80
2010,08,16,12,11,23.80
2010,08,16,12,12,23.80
2010,08,16,12,13,23.80
2010,08,16,12,14,23.80
2010,08,16,12,15,23.80
2010,08,16,12,16,23.80
2010,08,16,12,17,23.80
2010,08,16,12,18,23.90
2010,08,16,12,19,23.90
2010,08,16,12,20,24.10
2010,08,16,12,21,24.10
2010,08,16,12,22,24.20
2010,08,16,12,23,24.30
2010,08,16,12,24,24.30
2010,08,16,12,25,24.40
2010,08,16,12,26,24.40
2010,08,16,12,27,24.30
2010,08,16,12,28,24.30
2010,08,16,12,29,24.40
2010,08,16,12,30,24.40
2010,08,16,12,31,24.50
2010,08,16,12,32,24.60
2010,08,16,12,33,24.60
2010,08,16,12,34,24.70
2010,08,16,12,35,24.70
2010,08,16,12,36,24.60
2010,08,16,12,37,24.60
2010,08,16,12,38,24.60
2010,08,16,12,39,24.60
2010,08,16,12,40,24.60
2010,08,16,12,41,24.60
2010,08,16,12,42,24.60
2010,08,16,12,43,24.50
2010,08,16,12,44,24.40
2010,08,16,12,45,24.30
2010,08,16,12,46,24.20
2010,08,16,12,47,24.10
2010,08,16,12,48,24.10
2010,08,16,12,49,24.00
2010,08,16,12,50,23.90
2010,08,16,12,51,23.80
2010,08,16,12,52,23.80
2010,08,16,12,53,23.90
2010,08,16,12,54,23.90
2010,08,16,12,55,23.90
2010,08,16,12,56,23.90
2010,08,16,12,57,23.90
2010,08,16,12,58,23.80
2010,08,16,12,59,23.70
2010,08,16,13,00,23.70
2010,08,16,13,01,23.70
2010,08,16,13,02,23.60
2010,08,16,13,03,23.60
2010,08,16,13,04,23.50
2010,08,16,13,05,23.60
2010,08,16,13,06,23.70
2010,08,16,13,07,23.60
2010,08,16,13,08,23.50
2010,08,16,13,09,23.40
2010,08,16,13,10,23.30
2010,08,16,13,11,23.10
2010,08,16,13,12,23.00
2010,08,16,13,13,22.90
2010,08,16,13,14,22.80
2010,08,16,13,15,22.80
2010,08,16,13,16,22.80
2010,08,16,13,17,22.80
2010,08,16,13,18,22.80
2010,08,16,13,19,22.80
2010,08,16,13,20,22.80
2010,08,16,13,21,22.80
2010,08,16,13,22,22.80
2010,08,16,13,23,22.80
2010,08,16,13,24,22.90
2010,08,16,13,25,23.00
2010,08,16,13,26,23.30
2010,08,16,13,27,23.50
2010,08,16,13,28,23.70
2010,08,16,13,29,23.80
2010,08,16,13,30,23.90
2010,08,16,13,31,24.00
2010,08,16,13,32,24.10
2010,08,16,13,33,24.10
2010,08,16,13,34,24.10
2010,08,16,13,35,24.20
2010,08,16,13,36,24.20
2010,08,16,13,37,24.30
2010,08,16,13,38,24.40
2010,08,16,13,39,24.50
2010,08,16,13,40,24.60
2010,08,16,13,41,24.70
2010,08,16,13,42,24.70
2010,08,16,13,43,24.70
2010,08,16,13,44,24.70
2010,08,16,13,45,24.80
2010,08,16,13,46,24.80
2010,08,16,13,47,24.90
2010,08,16,13,48,24.90
2010,08,16,13,49,25.00
2010,08,16,13,50,25.20
2010,08,16,13,51,25.20
2010,08,16,13,52,25.40
2010,08,16,13,53,25.50
2010,08,16,13,54,25.60
2010,08,16,13,55,25.70
2010,08,16,13,56,25.80
2010,08,16,13,57,26.00
2010,08,16,13,58,26.10
2010,08,16,13,59,26.20
2010,08,16,14,00,26.20
2010,08,16,14,01,26.20
2010,08,16,14,02,26.20
2010,08,16,14,03,26.20
2010,08,16,14,04,26.10
2010,08,16,14,05,26.10
2010,08,16,14,06,26.20
2010,08,16,14,07,26.30
2010,08,16,14,08,26.30
2010,08,16,14,09,26.40
2010,08,16,14,10,26.50
2010,08,16,14,11,26.60
2010,08,16,14,12,26.60
2010,08,16,14,13,26.60
2010,08,16,14,14,26.60
2010,08,16,14,15,26.40
2010,08,16,14,16,26.30
2010,08,16,14,17,26.30
2010,08,16,14,18,26.30
2010,08,16,14,19,26.30
2010,08,16,14,20,26.20
2010,08,16,14,21,26.20
2010,08,16,14,22,26.20
2010,08,16,14,23,26.10
2010,08,16,14,24,26.10
2010,08,16,14,25,26.00
2010,08,16,14,26,25.90
2010,08,16,14,27,25.80
2010,08,16,14,28,25.70
2010,08,16,14,29,25.60
2010,08,16,14,30,25.60
2010,08,16,14,31,25.50
2010,08,16,14,32,25.40
2010,08,16,14,33,25.40
2010,08,16,14,34,25.40
2010,08,16,14,35,25.40
2010,08,16,14,36,25.40
2010,08,16,14,37,25.40
2010,08,16,14,38,25.40
2010,08,16,14,39,25.50
2010,08,16,14,40,25.50
2010,08,16,14,41,25.60
2010,08,16,14,42,25.70
2010,08,16,14,43,25.70
2010,08,16,14,44,25.70
2010,08,16,14,45,25.70
2010,08,16,14,46,25.70
2010,08,16,14,47,25.70
2010,08,16,14,48,25.70
2010,08,16,14,49,25.70
2010,08,16,14,50,25.70
2010,08,16,14,51,25.70
2010,08,16,14,52,25.70
2010,08,16,14,53,25.80
2010,08,16,14,54,25.90
2010,08,16,14,55,25.90
2010,08,16,14,56,25.80
2010,08,16,14,57,25.70
2010,08,16,14,58,25.70
2010,08,16,14,59,25.60
2010,08,16,15,00,25.60
2010,08,16,15,01,25.70
2010,08,16,15,02,25.80
2010,08,16,15,03,25.90
2010,08,16,15,04,25.90
2010,08,16,15,05,25.90
2010,08,16,15,06,25.80
2010,08,16,15,07,25.80
2010,08,16,15,08,25.90
2010,08,16,15,09,25.90
2010,08,16,15,10,25.90
2010,08,16,15,11,25.90
2010,08,16,15,12,25.90
2010,08,16,15,13,25.80
2010,08,16,15,14,25.80
2010,08,16,15,15,25.80
2010,08,16,15,16,25.90
2010,08,16,15,17,25.90
2010,08,16,15,18,25.80
2010,08,16,15,19,25.80
2010,08,16,15,20,25.70
2010,08,16,15,21,25.60
2010,08,16,15,22,25.40
2010,08,16,15,23,25.40
2010,08,16,15,24,25.50
2010,08,16,15,25,25.60
2010,08,16,15,26,25.70
2010,08,16,15,27,25.70
2010,08,16,15,28,25.80
2010,08,16,15,29,25.80
2010,08,16,15,30,25.90
2010,08,16,15,31,26.10
2010,08,16,15,32,26.20
2010,08,16,15,33,26.30
2010,08,16,15,34,26.30
2010,08,16,15,35,26.40
2010,08,16,15,36,26.40
2010,08,16,15,37,26.50
2010,08,16,15,38,26.60
2010,08,16,15,39,26.70
2010,08,16,15,40,26.70
2010,08,16,15,41,26.80
2010,08,16,15,42,26.80
2010,08,16,15,43,26.80
2010,08,16,15,44,26.90
2010,08,16,15,45,27.10
2010,08,16,15,46,27.10
2010,08,16,15,47,27.20
2010,08,16,15,48,27.30
2010,08,16,15,49,27.40
2010,08,16,15,50,27.60
2010,08,16,15,51,27.70
2010,08,16,15,52,27.80
2010,08,16,15,53,27.90
2010,08,16,15,54,28.00
2010,08,16,15,55,28.10
2010,08,16,15,56,28.00
2010,08,16,15,57,27.90
2010,08,16,15,58,27.80
2010,08,16,15,59,27.70
2010,08,16,16,00,27.60
2010,08,16,16,01,27.50
2010,08,16,16,02,27.40
2010,08,16,16,03,27.30
2010,08,16,16,04,27.30
2010,08,16,16,05,27.30
2010,08,16,16,06,27.30
2010,08,16,16,07,27.40
2010,08,16,16,08,27.50
2010,08,16,16,09,27.60
2010,08,16,16,10,27.70
2010,08,16,16,11,27.70
2010,08,16,16,12,27.70
2010,08,16,16,13,27.70
2010,08,16,16,14,27.70
2010,08,16,16,15,27.70
2010,08,16,16,16,27.70
2010,08,16,16,17,27.70
2010,08,16,16,18,27.70
2010,08,16,16,19,27.70
2010,08,16,16,20,27.60
2010,08,16,16,21,27.60
2010,08,16,16,22,27.60
2010,08,16,16,23,27.60
2010,08,16,16,24,27.60
2010,08,16,16,25,27.60
2010,08,16,16,26,27.40
2010,08,16,16,27,27.40
2010,08,16,16,28,27.30
2010,08,16,16,29,27.30
2010,08,16,16,30,27.10
2010,08,16,16,31,27.10
2010,08,16,16,32,27.10
2010,08,16,16,33,27.10
2010,08,16,16,34,27.10
2010,08,16,16,35,27.20
2010,08,16,16,36,27.30
2010,08,16,16,37,27.40
2010,08,16,16,38,27.40
2010,08,16,16,39,27.50
2010,08,16,16,40,27.60
2010,08,16,16,41,27.60
2010,08,16,16,42,27.70
2010,08,16,16,43,27.60
2010,08,16,16,44,27.50
2010,08,16,16,45,27.40
2010,08,16,16,46,27.40
2010,08,16,16,47,27.40
2010,08,16,16,48,27.50
2010,08,16,16,49,27.70
2010,08,16,16,50,27.80
2010,08,16,16,51,27.90
2010,08,16,16,52,28.00
2010,08,16,16,53,28.10
2010,08,16,16,54,28.10
2010,08,16,16,55,28.20
2010,08,16,16,56,28.10
2010,08,16,16,57,28.10
2010,08,16,16,58,28.00
2010,08,16,16,59,28.00
2010,08,16,17,00,27.90
2010,08,16,17,01,27.90
2010,08,16,17,02,27.80
2010,08,16,17,03,27.70
2010,08,16,17,04,27.50
2010,08,16,17,05,27.40
2010,08,16,17,06,27.50
2010,08,16,17,07,27.60
2010,08,16,17,08,27.60
2010,08,16,17,09,27.60
2010,08,16,17,10,27.60
2010,08,16,17,11,27.50
2010,08,16,17,12,27.40
2010,08,16,17,13,27.30
2010,08,16,17,14,27.20
2010,08,16,17,15,27.00
2010,08,16,17,16,26.90
2010,08,16,17,17,26.70
2010,08,16,17,18,26.60
2010,08,16,17,19,26.60
2010,08,16,17,20,26.50
2010,08,16,17,21,26.40
2010,08,16,17,22,26.20